Temp
-2 -2 -1 -1 -1 -2 -2 -2 -2 -3 -3 -3 -3 -3 -3 -3 -3 -3 -4 -4 -4 -4 -4 -4 -4 -4 -4 -4 -5 -5 -6 -6 -5 -5 -5 -5 -7 -7 -7 -8 -8 -8 -8 -7 -7
-2 -2 -1 -1 -2 -2 -2 -3 -3 -3 -3 -3 -3 -3 -3 -3 -3 -3 -3 -4 -4 -4 -4 -4 -4 -4 -4 -4 -5 -5 -6 -7 -5 -5 -5 -5 -5 -8 -8 -8 -8 -6 -7 -7 -7
-2 -2 -2 -2 -2 -2 -2 -3 -3 -3 -3 -3 -3 -3 -3 -3 -3 -4 -4 -4 -4 -4 -4 -4 -4 -4 -4 -5 -5 -5 -6 -5 -6 -5 -5 -5 -5 -6 -8 -8 -8 -7 -7 -7 -7
-2 -2 -2 -2 -2 -2 -2 -3 -3 -3 -3 -3 -3 -3 -3 -3 -3 -4 -4 -4 -4 -4 -4 -4 -4 -5 -5 -5 -5 -5 -5 -5 -5 -5 -5 -5 -5 -5 -5 -6 -7 -8 -7 -7 -7
-2 -2 -2 -2 -2 -2 -3 -3 -3 -3 -3 -3 -3 -3 -3 -3 -4 -4 -4 -4 -4 -4 -4 -4 -5 -5 -5 -5 -5 -5 -5 -5 -5 -5 -5 -5 -5 -5 -5 -6 -7 -8 -7 -7 -7
-2 -2 -2 -2 -2 -2 -2 -3 -3 -3 -3 -3 -3 -3 -3 -3 -4 -4 -4 -4 -4 -4 -5 -5 -5 -5 -5 -5 -5 -5 -5 -5 -5 -5 -5 -5 -5 -5 -6 -6 -6 -7 -7 -7 -8
-2 -2 -2 -2 -2 -2 -2 -3 -3 -3 -3 -3 -3 -3 -3 -3 -4 -4 -4 -4 -4 -4 -5 -5 -5 -5 -5 -5 -5 -5 -5 -5 -5 -5 -5 -5 -5 -5 -6 -6 -6 -8 -7 -7 -8
-3 -2 -2 -2 -2 -2 -2 -3 -3 -3 -3 -3 -3 -3 -3 -3 -4 -4 -4 -4 -4 -4 -5 -5 -5 -5 -5 -5 -5 -5 -5 -7 -6 -6 -6 -6 -8 -7 -6 -7 -7 -8 -8 -8 -7
-3 -3 -2 -2 -2 -2 -2 -3 -3 -3 -3 -3 -4 -3 -4 -4 -4 -4 -4 -4 -4 -4 -5 -5 -5 -5 -6 -5 -5 -7 -6 -6 -7 -5 -6 -6 -7 -8 -6 -6 -6 -7 -9 -7 -7
-3 -3 -3 -2 -2 -2 -2 -3 -3 -3 -3 -4 -4 -4 -4 -4 -4 -4 -4 -4 -4 -4 -4 -5 -5 -5 -6 -5 -7 -6 -6 -7 -7 -7 -6 -7 -8 -5 -6 -7 -6 -6 -7 -7 -7
-3 -3 -3 -3 -3 -2 -2 -3 -3 -3 -4 -3 -4 -4 -4 -4 -4 -4 -4 -4 -4 -4 -4 -5 -5 -6 -7 -6 -6 -6 -6 -6 -7 -5 -6 -7 -6 -6 -6 -7 -5 -6 -6 -7 -7
-4 -3 -3 -3 -3 -3 -3 -3 -3 -3 -3 -3 -4 -4 -4 -4 -4 -4 -4 -4 -4 -4 -4 -6 -6 -7 -6 -6 -6 -6 -6 -7 -7 -5 -6 -6 -7 -6 -6 -7 -6 -6 -6 -6 -7
-4 -4 -3 -3 -3 -3 -3 -3 -3 -3 -3 -3 -4 -4 -4 -4 -4 -4 -4 -4 -4 -4 -5 -5 -8 -6 -6 -6 -6 -6 -6 -8 -7 -7 -7 -7 -7 -7 -7 -6 -6 -5 -6 -6 -6
-4 -4 -4 -3 -3 -3 -3 -3 -3 -3 -4 -4 -4 -3 -4 -4 -4 -4 -4 -4 -4 -4 -5 -6 -5 -6 -6 -6 -6 -8 -7 -6 -6 -6 -7 -7 -7 -7 -7 -8 -8 -6 -5 -6 -6
-4 -4 -4 -4 -4 -3 -4 -4 -4 -4 -4 -3 -4 -4 -4 -4 -4 -4 -5 -5 -5 -5 -6 -8 -6 -6 -6 -6 -6 -6 -6 -6 -6 -6 -6 -7 -7 -7 -8 -8 -9 -9 -6 -6 -7
-5 -4 -4 -4 -4 -4 -4 -4 -4 -4 -5 -4 -4 -4 -4 -5 -5 -5 -5 -5 -5 -5 -6 -6 -6 -6 -6 -6 -6 -6 -6 -6 -6 -7 -7 -7 -7 -8 -8 -8 -9 -9 -8 -7 -7
-5 -5 -5 -5 -4 -4 -4 -5 -5 -5 -6 -6 -5 -5 -5 -5 -5 -5 -5 -5 -6 -6 -7 -7 -6 -6 -6 -6 -6 -6 -6 -8 -7 -7 -8 -7 -7 -7 -7 -8 -8 -8 -8 -8 -7
-5 -5 -5 -5 -5 -5 -5 -5 -5 -6 -8 -8 -5 -5 -5 -6 -6 -6 -6 -6 -6 -6 -7 -8 -7 -8 -6 -6 -7 -8 -7 -7 -7 -7 -7 -8 -7 -8 -8 -8 -8 -8 -9 -9 -9
-6 -5 -5 -5 -6 -6 -5 -5 -6 -6 -8 -7 -6 -8 -8 -8 -8 -9 -7 -7 -9 -9 -7 -8 -8 -8 -8 -7 -6 -8 -7 -8 -7 -7 -7 -7 -7 -8 -8 -8 -8 -8 -7 -8 -7
-7 -6 -6 -6 -6 -6 -6 -6 -6 -6 -6 -5 -7 -7 -8 -8 -8 -8 -9 -8 -9 -7 -7 -7 -7 -9 -9 -6 -7 -7 -7 -7 -8 -9 -8 -7 -8 -8 -9 -9 -9 -8 -7 -8 -7
-7 -7 -6 -7 -7 -6 -6 -7 -7 -8 -7 -7 -7 -8 -9 -8 -8 -9 -9 -9 -9 -7 -6 -7 -7 -7 -9 -8 -7 -9 -7 -8 -9 -9 -9 -9 -8 -9 -9 -9 -9 -9 -9 -8 -8
-8 -8 -6 -7 -7 -7 -7 -8 -7 -6 -7 -7 -7 -7 -8 -8 -9 -9 -9 -9 -9 -7 -7 -7 -7 -7 -7 -9 -9 -8 -9 -8 -8 -8 -10 -9 -8 -10 -9 -9 -9 -9 -8 -7 -7
-8 -8 -7 -7 -7 -8 -8 -8 -6 -7 -7 -7 -7 -7 -8 -7 -8 -8 -10 -9 -8 -7 -7 -7 -7 -7 -7 -8 -10 -10 -8 -7 -7 -7 -8 -8 -8 -10 -10 -11 -10 -8 -7 -8 -8
-8 -8 -8 -8 -8 -8 -8 -7 -7 -7 -7 -7 -7 -7 -7 -7 -7 -8 -8 -7 -7 -7 -7 -8 -8 -7 -7 -9 -9 -9 -10 -9 -8 -8 -8 -9 -10 -11 -11 -10 -9 -8 -8 -8 -8
-9 -9 -8 -8 -9 -8 -8 -8 -7 -7 -8 -7 -8 -7 -8 -8 -8 -8 -8 -9 -7 -7 -8 -8 -7 -8 -8 -8 -8 -8 -8 -8 -9 -9 -9 -8 -9 -8 -9 -8 -8 -8 -8 -8 -8
-10 -9 -8 -8 -8 -8 -8 -8 -8 -8 -8 -8 -8 -8 -8 -8 -8 -9 -10 -9 -9 -8 -7 -8 -8 -8 -8 -8 -8 -8 -8 -8 -9 -9 -9 -9 -9 -11 -10 -8 -8 -8 -9 -9 -9
-9 -10 -10 -9 -9 -9 -9 -9 -9 -10 -10 -8 -8 -9 -9 -8 -8 -8 -8 -8 -9 -9 -8 -8 -8 -8 -8 -8 -9 -8 -9 -9 -9 -9 -9 -9 -11 -11 -9 -9 -9 -9 -9 -9 -9
Height
5910 5911 5911 5911 5911 5912 5912 5912 5912 5913 5914 5914 5915 5915 5915 5915 5915 5916 5916 5917 5916 5917 5917 5917 5917 5917 5916 5915 5915 5916 5914 5919 5919 5917 5915 5913 5912 5910 5909 5910 5905 5901 5899 5897 5895
5909 5911 5911 5911 5912 5912 5913 5914 5914 5914 5915 5916 5916 5917 5917 5916 5917 5917 5918 5918 5918 5917 5918 5918 5918 5918 5918 5915 5916 5916 5913 5921 5919 5917 5916 5914 5913 5912 5913 5912 5908 5903 5902 5901 5900
5909 5910 5911 5912 5912 5913 5914 5914 5915 5915 5916 5917 5917 5918 5918 5918 5918 5919 5919 5919 5919 5919 5919 5919 5919 5918 5918 5917 5919 5919 5919 5919 5917 5916 5915 5915 5914 5913 5913 5916 5912 5904 5903 5903 5902
5909 5910 5911 5912 5912 5913 5914 5915 5916 5916 5916 5917 5918 5918 5919 5919 5921 5919 5919 5919 5919 5919 5920 5920 5919 5919 5919 5918 5918 5919 5919 5918 5917 5916 5915 5914 5914 5914 5913 5912 5910 5905 5904 5904 5904
5908 5909 5910 5911 5912 5913 5914 5914 5915 5916 5916 5917 5918 5918 5919 5919 5920 5919 5920 5920 5919 5919 5919 5919 5919 5919 5919 5918 5919 5919 5919 5918 5917 5916 5915 5914 5914 5913 5912 5911 5910 5907 5905 5905 5905
5906 5908 5909 5910 5911 5912 5913 5914 5915 5916 5916 5917 5918 5918 5919 5920 5919 5920 5920 5920 5920 5919 5919 5919 5919 5919 5918 5918 5918 5918 5918 5918 5917 5916 5916 5915 5914 5913 5912 5911 5910 5908 5903 5906 5906
5905 5906 5908 5909 5910 5911 5912 5913 5914 5915 5916 5917 5918 5919 5919 5921 5919 5919 5919 5920 5920 5920 5920 5919 5919 5919 5918 5918 5918 5918 5918 5916 5917 5917 5916 5914 5913 5912 5912 5911 5910 5909 5907 5903 5905
5903 5905 5906 5907 5909 5910 5911 5912 5913 5914 5915 5916 5917 5918 5919 5919 5919 5919 5919 5919 5919 5919 5919 5918 5918 5918 5917 5918 5919 5919 5918 5921 5918 5919 5918 5916 5918 5912 5912 5911 5910 5909 5908 5906 5905
5901 5903 5904 5906 5907 5908 5909 5910 5911 5912 5913 5914 5915 5917 5918 5918 5918 5919 5919 5918 5918 5917 5917 5916 5917 5917 5918 5917 5916 5921 5927 5927 5922 5917 5918 5918 5918 5911 5911 5910 5909 5909 5908 5906 5904
5898 5900 5902 5904 5905 5906 5907 5908 5909 5910 5911 5912 5913 5916 5916 5917 5917 5918 5918 5917 5917 5916 5915 5915 5915 5915 5916 5916 5919 5921 5923 5923 5920 5917 5916 5917 5915 5909 5911 5909 5907 5907 5906 5905 5904
5895 5897 5899 5901 5902 5904 5905 5906 5908 5909 5909 5911 5912 5912 5914 5915 5916 5916 5916 5916 5915 5914 5914 5913 5914 5913 5920 5914 5916 5917 5917 5917 5918 5916 5915 5914 5912 5908 5910 5906 5904 5905 5904 5903 5902
5892 5894 5896 5898 5899 5901 5902 5903 5904 5906 5907 5907 5908 5910 5911 5911 5913 5913 5914 5914 5913 5913 5912 5912 5912 5912 5913 5913 5913 5914 5914 5916 5916 5914 5914 5913 5913 5909 5908 5907 5904 5904 5902 5899 5900
5889 5891 5893 5895 5896 5898 5899 5900 5901 5902 5904 5905 5906 5907 5908 5908 5908 5910 5911 5911 5911 5910 5910 5910 5912 5911 5910 5911 5911 5912 5912 5914 5913 5912 5911 5911 5910 5907 5906 5905 5901 5899 5899 5898 5896
5885 5887 5889 5891 5894 5894 5896 5897 5898 5899 5901 5903 5903 5904 5905 5905 5906 5906 5907 5909 5908 5908 5908 5909 5907 5908 5908 5909 5909 5912 5908 5909 5909 5910 5912 5912 5917 5909 5905 5902 5898 5893 5895 5896 5894
5880 5882 5884 5886 5888 5891 5893 5894 5895 5897 5898 5900 5900 5901 5902 5902 5904 5904 5905 5905 5905 5906 5907 5909 5906 5906 5906 5906 5906 5906 5907 5907 5908 5907 5908 5910 5914 5908 5907 5904 5902 5894 5891 5891 5891
5874 5877 5879 5882 5884 5886 5888 5890 5892 5895 5894 5894 5898 5897 5899 5899 5899 5901 5902 5902 5903 5903 5904 5904 5903 5904 5903 5904 5904 5904 5905 5906 5905 5905 5909 5909 5913 5907 5903 5902 5898 5892 5888 5887 5886
5868 5871 5873 5876 5879 5881 5883 5885 5889 5891 5890 5890 5892 5893 5895 5896 5896 5897 5898 5899 5900 5901 5901 5901 5901 5900 5901 5901 5901 5902 5902 5904 5907 5905 5906 5907 5908 5905 5900 5899 5897 5891 5887 5883 5881
5860 5864 5867 5870 5872 5875 5878 5880 5883 5888 5890 5887 5889 5889 5891 5891 5892 5893 5894 5896 5897 5897 5898 5902 5906 5898 5896 5899 5900 5899 5899 5901 5901 5904 5907 5904 5904 5902 5895 5893 5894 5892 5887 5881 5878
5853 5856 5860 5863 5865 5868 5871 5873 5880 5882 5885 5882 5885 5887 5888 5891 5891 5889 5891 5893 5895 5893 5896 5897 5902 5895 5892 5893 5896 5893 5895 5896 5896 5897 5898 5901 5899 5892 5890 5887 5884 5883 5880 5877 5874
5844 5847 5851 5855 5858 5861 5864 5868 5871 5870 5874 5877 5879 5882 5885 5889 5887 5887 5888 5889 5892 5887 5890 5892 5892 5892 5888 5888 5891 5891 5889 5890 5891 5893 5895 5899 5894 5887 5883 5881 5876 5874 5871 5869 5868
5836 5840 5843 5846 5850 5853 5857 5862 5863 5862 5869 5871 5873 5876 5881 5885 5886 5885 5886 5887 5882 5882 5885 5885 5885 5890 5885 5884 5884 5883 5883 5883 5886 5887 5887 5889 5892 5882 5877 5875 5872 5869 5866 5861 5861
5827 5831 5834 5838 5843 5846 5850 5855 5854 5855 5862 5863 5866 5869 5871 5874 5879 5880 5882 5883 5874 5876 5878 5878 5880 5881 5883 5884 5878 5880 5879 5878 5878 5880 5882 5880 5883 5875 5870 5868 5865 5861 5859 5855 5853
5816 5821 5826 5830 5834 5838 5842 5844 5845 5851 5853 5856 5858 5862 5864 5866 5868 5869 5874 5867 5868 5871 5870 5873 5874 5874 5876 5879 5876 5871 5869 5872 5872 5871 5871 5872 5874 5873 5865 5861 5854 5851 5851 5847 5844
5807 5812 5814 5821 5824 5827 5831 5834 5837 5841 5844 5847 5851 5853 5856 5858 5860 5862 5864 5859 5861 5863 5865 5866 5866 5867 5869 5871 5868 5866 5864 5864 5864 5864 5864 5863 5864 5862 5857 5852 5849 5845 5842 5839 5834
5795 5799 5803 5809 5815 5818 5821 5824 5829 5831 5835 5838 5842 5845 5848 5849 5852 5853 5854 5855 5850 5856 5857 5857 5858 5858 5859 5861 5861 5859 5858 5857 5857 5856 5854 5856 5852 5851 5845 5841 5840 5838 5834 5830 5826
5781 5787 5792 5796 5804 5810 5813 5816 5820 5823 5826 5829 5833 5836 5839 5840 5846 5845 5844 5847 5847 5840 5847 5850 5849 5849 5850 5850 5850 5851 5852 5850 5848 5847 5845 5843 5842 5838 5831 5830 5828 5827 5824 5820 5817
5773 5778 5784 5787 5793 5798 5803 5806 5810 5814 5814 5818 5822 5826 5827 5831 5831 5831 5835 5839 5838 5838 5837 5835 5841 5840 5840 5840 5838 5840 5842 5839 5838 5837 5837 5834 5831 5827 5821 5819 5816 5815 5811 5808 5805
Wind_Speed
6 3 2 2 5 9 12 13 13 13 12 12 11 12 13 12 12 11 11 11 11 10 10 9 10 11 12 13 17 13 22 10 5 5 8 11 7 12 16 14 21 11 16 16 15
7 4 2 2 5 9 11 12 11 12 11 11 10 10 10 11 10 10 9 8 8 7 8 7 8 9 8 14 14 13 19 6 6 6 8 9 10 12 10 9 13 16 12 11 11
7 5 4 3 5 8 9 10 11 10 10 10 9 8 7 7 7 7 7 6 6 6 5 5 7 8 8 12 10 10 7 5 7 9 9 10 10 9 4 9 12 17 11 9 8
7 5 4 4 5 6 8 8 9 8 9 8 6 5 4 5 4 4 4 4 4 4 4 3 5 6 6 8 8 7 6 4 5 7 9 8 9 10 10 6 3 13 8 8 6
8 6 5 4 5 6 7 7 6 6 7 6 5 4 3 2 4 4 4 4 4 3 4 4 4 4 5 6 5 4 6 7 7 7 6 8 9 9 8 7 3 9 9 5 5
9 7 6 5 5 5 6 7 6 5 5 5 5 5 4 4 5 4 4 5 5 5 4 5 5 5 5 5 5 7 8 7 7 7 7 7 8 7 8 8 5 5 14 5 7
10 8 7 6 5 5 5 6 5 5 5 6 6 5 3 3 3 3 3 4 5 6 6 6 4 5 6 5 5 8 9 5 5 6 8 10 3 4 10 9 6 3 9 14 5
11 10 8 7 6 5 6 6 6 6 5 5 6 5 3 1 1 2 3 4 6 6 7 6 5 5 5 4 7 8 16 11 15 8 5 6 5 20 9 9 6 5 10 11 11
13 11 9 8 8 6 7 8 8 7 6 6 6 5 4 3 2 2 4 6 8 8 8 7 6 5 3 3 13 18 7 6 12 7 4 2 1 19 11 12 10 11 8 11 16
15 13 11 9 9 7 8 9 10 9 9 7 7 5 6 5 4 5 5 8 10 10 9 8 7 5 3 0 5 17 11 5 8 12 7 5 6 18 9 9 11 10 13 16 17
17 15 13 11 11 9 9 10 12 11 11 10 8 9 9 8 7 8 9 11 11 11 8 5 5 2 2 10 3 14 15 11 10 4 6 7 11 16 9 13 14 11 12 14 15
18 17 15 14 13 10 9 10 11 11 12 12 13 14 14 14 13 12 13 13 11 11 7 3 6 8 4 9 9 10 9 4 10 3 5 4 6 13 13 16 18 14 15 16 14
19 19 17 15 15 13 11 11 11 11 13 13 13 13 14 15 15 14 14 12 11 10 6 4 12 5 9 9 6 5 5 8 10 10 9 8 11 19 27 27 20 12 12 15 16
21 20 19 17 17 16 14 13 12 11 13 11 12 9 12 13 13 12 12 10 10 9 6 6 10 6 5 5 6 1 16 8 8 4 6 9 16 25 23 27 28 20 11 9 18
23 22 22 21 19 18 17 14 14 12 13 12 10 10 12 14 11 10 9 10 9 7 6 7 7 8 8 11 7 15 5 8 7 7 6 7 6 13 15 9 10 21 30 19 17
25 24 23 22 21 20 19 16 14 14 14 17 10 12 12 13 13 11 10 9 10 9 7 11 11 10 12 10 10 12 10 7 11 9 7 9 7 7 10 9 12 26 42 31 25
28 26 24 23 21 21 19 18 17 11 19 21 17 15 15 13 14 12 11 12 11 9 8 11 10 17 11 12 13 9 8 9 9 14 14 8 12 18 26 29 32 38 43 40 34
29 27 26 25 23 22 21 21 18 10 10 21 17 17 15 14 13 15 14 13 12 11 8 4 7 24 16 11 12 11 15 8 8 8 13 13 13 20 28 31 28 29 33 37 36
31 31 30 27 25 24 24 25 15 15 15 27 19 16 13 11 17 18 14 12 8 17 11 9 3 28 32 23 16 18 14 14 14 12 11 11 16 26 23 29 35 28 24 27 29
31 31 30 29 27 27 28 23 24 31 30 22 20 19 15 15 21 19 14 14 17 26 17 17 19 19 25 20 14 18 21 19 13 11 9 8 13 19 26 30 39 40 37 32 29
32 32 33 30 29 29 27 22 26 35 25 24 22 20 15 17 21 19 14 14 29 27 17 20 23 12 22 26 23 18 15 15 10 11 14 11 10 23 29 36 41 41 43 38 28
35 33 36 33 31 29 28 25 34 36 19 26 24 23 24 25 18 25 12 22 33 27 22 23 22 21 20 15 26 24 26 25 24 18 13 22 20 25 33 37 41 44 37 36 34
38 36 36 33 33 30 30 35 37 28 30 28 28 28 31 30 30 31 19 36 40 31 29 24 24 24 20 12 16 20 29 17 20 21 21 22 20 13 26 31 39 41 37 35 36
39 37 39 35 35 37 35 38 37 32 32 32 30 32 32 33 33 33 29 38 37 32 30 25 26 26 23 20 27 29 26 27 27 26 24 23 21 27 33 41 40 41 37 36 39
40 38 42 39 36 35 37 38 33 34 32 33 32 32 29 32 30 33 33 30 40 31 30 29 29 27 27 25 27 33 34 34 31 30 30 27 31 32 37 41 39 36 36 38 38
44 44 44 43 37 36 37 38 35 32 35 35 32 31 30 33 29 30 31 32 33 42 33 28 29 30 28 28 29 30 30 31 33 33 33 33 33 30 38 41 39 36 38 38 38
45 43 41 42 41 40 37 38 36 33 37 37 36 33 36 34 38 40 37 32 35 35 36 39 29 32 31 30 34 35 30 33 34 34 31 34 29 31 42 42 42 41 40 39 41
Wind_Direction
157 146 110 74 92 104 110 114 117 117 113 112 110 103 101 99 98 97 96 96 96 93 87 76 72 67 63 52 58 68 63 2 9 14 11 10 32 11 38 38 338 327 348 360 11
168 161 137 106 113 114 115 119 122 127 119 116 118 107 104 98 98 95 90 89 90 88 77 65 64 63 56 68 59 53 52 278 0 16 15 6 2 15 48 55 3 341 359 338 354
174 171 158 133 131 123 123 122 127 132 128 124 123 122 112 104 96 93 85 78 76 72 70 52 48 52 59 70 67 65 97 11 351 353 355 356 1 349 2 32 287 314 348 324 330
181 182 172 151 144 140 135 128 130 132 135 137 141 135 128 112 85 82 78 68 57 45 44 40 38 45 33 61 52 45 37 17 339 332 330 338 343 345 351 358 304 305 343 326 317
190 194 189 171 162 156 153 144 135 133 133 132 144 157 153 99 73 74 61 49 53 28 9 16 22 23 22 32 31 6 5 341 327 321 313 311 320 337 345 8 358 303 342 335 318
197 201 200 186 179 171 175 163 157 155 149 142 138 130 110 84 65 67 67 48 43 34 23 10 2 1 356 358 1 347 340 330 328 341 325 321 319 334 351 350 327 321 321 342 305
202 205 201 199 191 193 201 188 181 179 171 160 161 155 127 87 71 43 24 9 6 358 5 7 354 337 331 335 358 352 339 324 9 5 340 335 10 10 339 328 342 340 300 316 299
210 208 207 207 206 211 216 213 208 207 200 184 186 190 186 161 7 10 5 358 346 337 335 331 335 317 335 355 12 4 56 5 292 346 347 13 252 299 335 321 315 264 276 291 297
219 216 217 222 215 225 227 225 223 220 217 212 210 210 223 224 263 314 347 349 342 335 323 314 311 306 306 57 41 19 25 254 295 311 294 259 220 279 320 301 281 275 270 296 287
224 225 225 232 224 232 235 230 234 231 234 233 232 236 243 245 257 284 311 329 334 332 327 308 298 295 265 37 343 190 205 241 288 277 327 16 270 290 307 288 293 285 275 282 279
228 230 232 235 229 241 241 237 237 240 242 246 247 249 255 260 262 280 296 313 319 323 325 312 301 345 270 242 274 216 248 263 281 297 284 258 295 295 324 313 313 312 301 292 287
232 232 233 237 233 243 247 245 241 244 251 252 254 258 262 265 268 275 286 301 307 316 323 355 348 264 286 275 265 256 244 28 277 315 290 254 294 303 329 326 313 311 300 294 296
234 236 236 239 237 244 253 250 249 251 257 256 261 263 268 268 269 274 282 289 297 304 313 301 239 297 276 280 259 244 248 219 220 279 6 325 332 290 316 324 319 292 294 302 308
232 236 237 239 239 241 252 256 254 265 269 255 260 261 263 268 273 276 277 281 292 297 300 275 285 280 274 271 258 53 241 249 264 244 62 270 118 292 294 323 318 317 324 307 309
239 238 239 239 241 245 249 252 254 260 264 268 262 263 267 268 271 277 275 283 283 284 283 258 278 265 261 249 242 252 257 279 300 284 243 258 287 259 300 268 264 273 312 317 304
241 239 240 241 243 247 251 250 253 251 254 262 252 262 265 269 273 272 272 272 278 282 271 276 283 271 269 279 270 286 291 300 21 28 317 319 172 262 220 236 243 272 291 309 305
242 242 240 240 241 245 249 249 249 234 252 276 265 261 261 260 264 265 268 272 271 265 309 313 301 306 263 281 288 281 298 337 298 279 252 208 229 257 258 256 267 275 292 295 301
242 242 241 239 239 242 243 243 246 224 282 263 266 264 261 271 259 271 273 269 261 264 232 256 291 284 281 294 292 278 279 286 248 216 229 257 276 272 274 284 296 284 274 278 284
241 242 240 239 238 238 239 244 233 213 203 251 252 234 248 220 238 257 271 258 282 268 244 227 272 261 274 293 289 274 282 255 276 267 287 299 282 271 276 285 285 287 291 290 296
239 239 238 237 237 237 240 239 226 226 229 252 238 242 229 223 243 240 253 260 232 255 263 257 242 258 286 290 292 276 277 282 281 273 280 262 253 267 281 281 288 294 299 303 303
239 237 238 236 235 235 239 229 233 246 239 237 234 220 239 213 252 252 243 254 255 264 264 261 259 248 259 285 299 291 305 299 273 244 252 264 282 260 256 265 273 284 293 298 304
239 238 239 237 236 235 233 229 241 248 237 232 235 236 222 222 218 230 213 240 254 266 273 263 262 265 256 261 273 287 276 271 276 267 252 240 226 286 279 277 280 282 291 300 301
239 239 241 238 238 237 234 232 246 244 242 238 237 236 236 239 229 234 223 242 253 269 264 267 278 273 270 285 292 290 280 278 283 276 271 266 269 257 282 284 284 295 305 300 297
239 239 239 234 234 236 236 240 240 239 243 241 242 239 240 243 245 247 237 255 259 261 266 270 267 273 267 220 238 244 270 285 286 281 280 277 265 256 253 261 280 292 299 295 295
234 233 236 234 229 232 233 238 241 241 241 244 242 244 241 243 241 248 246 246 266 262 262 266 271 270 269 263 248 256 266 272 277 277 275 278 269 273 271 278 285 290 291 291 293
233 232 234 238 235 238 239 240 241 244 243 244 241 242 241 241 242 244 252 247 259 273 269 266 274 273 273 271 268 260 262 269 273 275 277 279 281 281 274 288 295 297 293 293 295
234 235 234 235 236 235 232 236 237 235 243 240 239 238 240 242 239 239 252 262 259 264 275 284 275 277 278 273 271 274 282 274 273 273 277 279 272 269 285 293 297 295 296 297 303